Location: Bodest
(46.3000°N, 22.5667°E)
Time: 22:59:46
(UTC+00:00)

Cosmos 1703 - Pass Details

Date: 16 October 2021
Orbit: 521 x 539 km, 82.5° (Epoch: 26 November)

Event Time Altitude Azimuth Distance (km) Brightness Sun altitude
Rises 16:26:06 0° 359° (N) 2,699 6.8 -8.5°
Reaches altitude 10° 16:28:27 10° 10° (N) 1,799 5.8 -8.9°
Maximum altitude 16:32:00 31° 74° (ENE) 948 4.0 -9.5°
Drops below altitude 10° 16:35:31 10° 138° (SE) 1,776 5.5 -10.1°
Sets 16:37:49 0° 149° (SSE) 2,657 6.5 -10.5°
